Time,TemperatureF,DewpointF,PressureIn,WindDirection,WindDirectionDegrees,WindSpeedMPH,WindSpeedGustMPH,Humidity,HourlyPrecipIn,Conditions,Clouds,dailyrainin,SoftwareType,DateUTC
2013-03-22 00:00:00,25.0,14.2,29.73,WNW,288,0.0,3.0,63,0.00,,,0.00,meteohub,2013-03-22 04:00:00,
2013-03-22 00:01:00,25.0,13.8,29.73,WNW,288,0.0,3.0,62,0.00,,,0.00,meteohub,2013-03-22 04:01:00,
2013-03-22 00:02:00,25.2,14.0,29.73,WNW,300,0.0,3.0,62,0.00,,,0.00,meteohub,2013-03-22 04:02:00,
2013-03-22 00:03:00,25.2,14.0,29.73,SW,235,0.0,3.0,62,0.00,,,0.00,meteohub,2013-03-22 04:03:00,
2013-03-22 00:08:00,25.2,14.0,29.73,WNW,284,0.0,3.0,62,0.00,,,0.00,meteohub,2013-03-22 04:08:00,
2013-03-22 00:13:00,25.3,13.8,29.73,West,280,2.0,4.0,61,0.00,,,0.00,meteohub,2013-03-22 04:13:00,
2013-03-22 00:18:00,25.7,13.3,29.73,WNW,302,3.0,4.0,59,0.00,,,0.00,meteohub,2013-03-22 04:18:00,
2013-03-22 00:24:00,26.1,13.6,29.73,West,262,2.0,5.0,59,0.00,,,0.00,meteohub,2013-03-22 04:24:00,
2013-03-22 00:29:00,26.1,14.0,29.73,NNW,336,0.0,5.0,60,0.00,,,0.00,meteohub,2013-03-22 04:29:00,
2013-03-22 00:34:00,26.2,13.5,29.73,WSW,256,2.0,5.0,58,0.00,,,0.00,meteohub,2013-03-22 04:34:00,
2013-03-22 00:39:00,26.4,14.0,29.73,WSW,240,0.0,4.0,59,0.00,,,0.00,meteohub,2013-03-22 04:39:00,
2013-03-22 00:44:00,26.2,13.5,29.73,West,260,0.0,4.0,58,0.00,,,0.00,meteohub,2013-03-22 04:44:00,
2013-03-22 00:49:00,26.2,13.8,29.73,West,263,1.0,4.0,59,0.00,,,0.00,meteohub,2013-03-22 04:49:00,
2013-03-22 00:55:00,26.2,13.8,29.73,WSW,255,0.0,2.0,59,0.00,,,0.00,meteohub,2013-03-22 04:55:00,
2013-03-22 01:00:00,25.9,13.8,29.73,West,269,0.0,2.0,60,0.00,,,0.00,meteohub,2013-03-22 05:00:00,
2013-03-22 01:06:00,25.7,14.2,29.73,SW,228,1.0,2.0,61,0.00,,,0.00,meteohub,2013-03-22 05:06:00,
2013-03-22 01:11:00,25.3,14.2,29.73,SW,228,0.0,2.0,62,0.00,,,0.00,meteohub,2013-03-22 05:11:00,
2013-03-22 01:16:00,25.2,14.0,29.73,SSW,205,0.0,1.0,62,0.00,,,0.00,meteohub,2013-03-22 05:16:00,
2013-03-22 01:22:00,25.3,14.5,29.73,West,281,0.0,2.0,63,0.00,,,0.00,meteohub,2013-03-22 05:22:00,
2013-03-22 01:27:00,25.2,14.4,29.73,SW,224,1.0,2.0,63,0.00,,,0.00,meteohub,2013-03-22 05:27:00,
2013-03-22 01:32:00,25.3,14.5,29.73,SW,235,2.0,5.0,63,0.00,,,0.00,meteohub,2013-03-22 05:32:00,
2013-03-22 01:37:00,25.5,14.7,29.73,SSW,195,1.0,5.0,63,0.00,,,0.00,meteohub,2013-03-22 05:37:00,
2013-03-22 01:42:00,25.5,14.7,29.73,WSW,248,0.0,5.0,63,0.00,,,0.00,meteohub,2013-03-22 05:42:00,
2013-03-22 01:47:00,25.3,14.9,29.73,SE,125,0.0,4.0,64,0.00,,,0.00,meteohub,2013-03-22 05:47:00,
2013-03-22 01:52:00,25.3,15.3,29.73,SW,219,0.0,4.0,65,0.00,,,0.00,meteohub,2013-03-22 05:52:00,
2013-03-22 01:58:00,25.2,15.1,29.73,WSW,248,1.0,3.0,65,0.00,,,0.00,meteohub,2013-03-22 05:58:00,
2013-03-22 02:03:00,25.2,15.8,29.73,SSW,212,1.0,3.0,67,0.00,,,0.00,meteohub,2013-03-22 06:03:00,
2013-03-22 02:09:00,25.3,16.0,29.73,West,271,0.0,4.0,67,0.00,,,0.00,meteohub,2013-03-22 06:09:00,
2013-03-22 02:14:00,25.0,16.0,29.73,West,271,0.0,4.0,68,0.00,,,0.00,meteohub,2013-03-22 06:14:00,
2013-03-22 02:19:00,24.8,15.8,29.73,WNW,297,1.0,3.0,68,0.00,,,0.00,meteohub,2013-03-22 06:19:00,
2013-03-22 02:25:00,25.2,16.3,29.73,SE,131,0.0,1.0,69,0.00,,,0.00,meteohub,2013-03-22 06:25:00,
2013-03-22 02:30:00,25.2,16.3,29.73,NW,312,0.0,2.0,69,0.00,,,0.00,meteohub,2013-03-22 06:30:00,
2013-03-22 02:35:00,25.2,16.3,29.73,West,281,0.0,2.0,69,0.00,,,0.00,meteohub,2013-03-22 06:35:00,
2013-03-22 02:40:00,25.3,16.5,29.73,WSW,243,0.0,2.0,69,0.00,,,0.00,meteohub,2013-03-22 06:40:00,
2013-03-22 02:45:00,25.3,16.5,29.73,WSW,243,0.0,2.0,69,0.00,,,0.00,meteohub,2013-03-22 06:45:00,
2013-03-22 02:50:00,25.3,16.5,29.73,WSW,252,0.0,3.0,69,0.00,,,0.00,meteohub,2013-03-22 06:50:00,
2013-03-22 02:55:00,25.9,17.4,29.73,West,281,0.0,4.0,70,0.00,,,0.00,meteohub,2013-03-22 06:55:00,
2013-03-22 03:01:00,26.2,17.4,29.73,SSW,204,0.0,4.0,69,0.00,,,0.00,meteohub,2013-03-22 07:01:00,
2013-03-22 03:07:00,26.4,17.2,29.73,WNW,291,1.0,4.0,68,0.00,,,0.00,meteohub,2013-03-22 07:07:00,
2013-03-22 03:12:00,26.8,18.0,29.72,WNW,300,5.0,5.0,69,0.00,,,0.00,meteohub,2013-03-22 07:12:00,
2013-03-22 03:17:00,27.1,17.6,29.72,SSW,205,4.0,5.0,67,0.00,,,0.00,meteohub,2013-03-22 07:17:00,
2013-03-22 03:22:00,27.3,17.8,29.72,WSW,252,1.0,8.0,67,0.00,,,0.00,meteohub,2013-03-22 07:22:00,
2013-03-22 03:27:00,27.3,18.1,29.72,West,265,2.0,8.0,68,0.00,,,0.00,meteohub,2013-03-22 07:27:00,
2013-03-22 03:33:00,27.3,17.8,29.73,SW,231,2.0,9.0,67,0.00,,,0.00,meteohub,2013-03-22 07:33:00,
2013-03-22 03:38:00,27.3,17.8,29.73,West,269,3.0,9.0,67,0.00,,,0.00,meteohub,2013-03-22 07:38:00,
2013-03-22 03:43:00,27.3,17.8,29.73,WNW,293,3.0,9.0,67,0.00,,,0.00,meteohub,2013-03-22 07:43:00,
2013-03-22 03:48:00,27.3,17.8,29.73,WNW,285,0.0,5.0,67,0.00,,,0.00,meteohub,2013-03-22 07:48:00,
2013-03-22 03:53:00,27.1,18.0,29.73,West,281,3.0,5.0,68,0.00,,,0.00,meteohub,2013-03-22 07:53:00,
2013-03-22 03:59:00,27.1,18.0,29.72,WSW,242,0.0,6.0,68,0.00,,,0.00,meteohub,2013-03-22 07:59:00,
2013-03-22 04:04:00,26.8,17.6,29.72,WNW,287,2.0,6.0,68,0.00,,,0.00,meteohub,2013-03-22 08:04:00,
2013-03-22 04:09:00,26.8,18.0,29.72,West,270,1.0,6.0,69,0.00,,,0.00,meteohub,2013-03-22 08:09:00,
2013-03-22 04:14:00,26.8,18.0,29.72,WNW,300,3.0,6.0,69,0.00,,,0.00,meteohub,2013-03-22 08:14:00,
2013-03-22 04:19:00,27.0,18.1,29.72,WNW,289,1.0,5.0,69,0.00,,,0.00,meteohub,2013-03-22 08:19:00,
2013-03-22 04:24:00,27.0,18.1,29.72,SW,224,1.0,7.0,69,0.00,,,0.00,meteohub,2013-03-22 08:24:00,
2013-03-22 04:29:00,26.8,18.0,29.72,West,278,0.0,8.0,69,0.00,,,0.00,meteohub,2013-03-22 08:29:00,
2013-03-22 04:34:00,26.6,18.1,29.72,West,274,3.0,8.0,70,0.00,,,0.00,meteohub,2013-03-22 08:34:00,
2013-03-22 04:40:00,26.8,18.0,29.72,WSW,257,2.0,8.0,69,0.00,,,0.00,meteohub,2013-03-22 08:40:00,
2013-03-22 04:45:00,26.6,18.1,29.72,WSW,255,2.0,6.0,70,0.00,,,0.00,meteohub,2013-03-22 08:45:00,
2013-03-22 04:50:00,26.4,18.0,29.72,West,276,0.0,6.0,70,0.00,,,0.00,meteohub,2013-03-22 08:50:00,
2013-03-22 04:55:00,26.2,18.1,29.72,SW,235,1.0,3.0,71,0.00,,,0.00,meteohub,2013-03-22 08:55:00,
2013-03-22 05:00:00,26.2,18.1,29.72,West,263,0.0,4.0,71,0.00,,,0.00,meteohub,2013-03-22 09:00:00,
2013-03-22 05:06:00,26.1,18.3,29.72,WSW,242,2.0,4.0,72,0.00,,,0.00,meteohub,2013-03-22 09:06:00,
2013-03-22 05:11:00,25.9,18.1,29.73,WSW,243,5.0,5.0,72,0.00,,,0.00,meteohub,2013-03-22 09:11:00,
2013-03-22 05:16:00,25.7,18.0,29.73,West,277,0.0,5.0,72,0.00,,,0.00,meteohub,2013-03-22 09:16:00,
2013-03-22 05:22:00,25.3,18.0,29.73,West,266,0.0,5.0,73,0.00,,,0.00,meteohub,2013-03-22 09:22:00,
2013-03-22 05:27:00,25.3,18.1,29.73,WNW,294,0.0,5.0,74,0.00,,,0.00,meteohub,2013-03-22 09:27:00,
2013-03-22 05:32:00,25.3,18.1,29.73,West,281,0.0,2.0,74,0.00,,,0.00,meteohub,2013-03-22 09:32:00,
2013-03-22 05:37:00,25.2,18.0,29.73,West,281,0.0,3.0,74,0.00,,,0.00,meteohub,2013-03-22 09:37:00,
2013-03-22 05:42:00,25.2,18.3,29.73,West,275,1.0,3.0,75,0.00,,,0.00,meteohub,2013-03-22 09:42:00,
2013-03-22 05:47:00,25.3,18.5,29.73,West,266,1.0,6.0,75,0.00,,,0.00,meteohub,2013-03-22 09:47:00,
2013-03-22 05:52:00,25.3,18.5,29.73,SW,235,2.0,6.0,75,0.00,,,0.00,meteohub,2013-03-22 09:52:00,
2013-03-22 05:57:00,25.3,18.9,29.73,West,275,0.0,6.0,76,0.00,,,0.00,meteohub,2013-03-22 09:57:00,
2013-03-22 06:02:00,25.0,18.1,29.74,West,276,0.0,4.0,75,0.00,,,0.00,meteohub,2013-03-22 10:02:00,
2013-03-22 06:07:00,24.8,18.3,29.74,WNW,302,0.0,3.0,76,0.00,,,0.00,meteohub,2013-03-22 10:07:00,
2013-03-22 06:12:00,24.6,18.1,29.74,ESE,122,0.0,2.0,76,0.00,,,0.00,meteohub,2013-03-22 10:12:00,
2013-03-22 06:18:00,24.3,18.1,29.74,SW,224,0.0,2.0,77,0.00,,,0.00,meteohub,2013-03-22 10:18:00,
2013-03-22 06:23:00,24.1,18.1,29.74,WNW,294,0.0,2.0,78,0.00,,,0.00,meteohub,2013-03-22 10:23:00,
2013-03-22 06:28:00,23.9,18.7,29.75,West,278,0.0,1.0,80,0.00,,,0.00,meteohub,2013-03-22 10:28:00,
2013-03-22 06:33:00,24.1,18.9,29.75,WNW,297,0.0,1.0,80,0.00,,,0.00,meteohub,2013-03-22 10:33:00,
2013-03-22 06:39:00,24.1,18.9,29.75,West,275,0.0,2.0,80,0.00,,,0.00,meteohub,2013-03-22 10:39:00,
2013-03-22 06:44:00,23.9,18.7,29.75,WNW,300,1.0,2.0,80,0.00,,,0.00,meteohub,2013-03-22 10:44:00,
2013-03-22 06:49:00,24.1,19.0,29.75,West,275,0.0,1.0,81,0.00,,,0.00,meteohub,2013-03-22 10:49:00,
2013-03-22 06:55:00,23.9,18.9,29.75,WNW,297,0.0,1.0,81,0.00,,,0.00,meteohub,2013-03-22 10:55:00,
2013-03-22 07:00:00,24.1,19.0,29.75,WNW,283,0.0,3.0,81,0.00,,,0.00,meteohub,2013-03-22 11:00:00,
2013-03-22 07:05:00,24.4,19.4,29.76,WSW,243,0.0,4.0,81,0.00,,,0.00,meteohub,2013-03-22 11:05:00,
2013-03-22 07:10:00,24.4,19.4,29.76,SW,231,1.0,4.0,81,0.00,,,0.00,meteohub,2013-03-22 11:10:00,
2013-03-22 07:16:00,24.6,19.6,29.76,West,270,1.0,4.0,81,0.00,,,0.00,meteohub,2013-03-22 11:16:00,
2013-03-22 07:21:00,24.8,19.8,29.76,WSW,258,0.0,5.0,81,0.00,,,0.00,meteohub,2013-03-22 11:21:00,
2013-03-22 07:26:00,25.0,19.9,29.76,WSW,257,0.0,5.0,81,0.00,,,0.00,meteohub,2013-03-22 11:26:00,
2013-03-22 07:31:00,25.3,20.1,29.77,NW,305,1.0,5.0,80,0.00,,,0.00,meteohub,2013-03-22 11:31:00,
2013-03-22 07:36:00,26.1,20.5,29.77,WNW,289,1.0,5.0,79,0.00,,,0.00,meteohub,2013-03-22 11:36:00,
2013-03-22 07:42:00,27.0,20.7,29.77,WNW,285,0.0,5.0,77,0.00,,,0.00,meteohub,2013-03-22 11:42:00,
2013-03-22 07:47:00,27.7,21.0,29.77,WNW,285,0.0,5.0,76,0.00,,,0.00,meteohub,2013-03-22 11:47:00,
2013-03-22 07:52:00,28.4,21.2,29.77,WSW,255,0.0,4.0,74,0.00,,,0.00,meteohub,2013-03-22 11:52:00,
2013-03-22 07:57:00,28.8,21.6,29.77,North,356,1.0,2.0,74,0.00,,,0.00,meteohub,2013-03-22 11:57:00,
2013-03-22 08:02:00,28.8,21.2,29.78,WNW,289,3.0,3.0,73,0.00,,,0.00,meteohub,2013-03-22 12:02:00,
2013-03-22 08:07:00,28.9,21.4,29.78,West,262,2.0,6.0,73,0.00,,,0.00,meteohub,2013-03-22 12:07:00,
2013-03-22 08:12:00,29.3,21.7,29.78,NNW,331,2.0,10.0,73,0.00,,,0.00,meteohub,2013-03-22 12:12:00,
2013-03-22 08:18:00,29.7,21.7,29.78,West,274,2.0,10.0,72,0.00,,,0.00,meteohub,2013-03-22 12:18:00,
2013-03-22 08:23:00,29.8,21.2,29.78,WNW,302,5.0,8.0,70,0.00,,,0.00,meteohub,2013-03-22 12:23:00,
2013-03-22 08:28:00,29.8,21.2,29.78,West,269,3.0,11.0,70,0.00,,,0.00,meteohub,2013-03-22 12:28:00,
2013-03-22 08:33:00,29.7,21.0,29.78,WNW,289,4.0,11.0,70,0.00,,,0.00,meteohub,2013-03-22 12:33:00,
2013-03-22 08:38:00,29.5,20.8,29.78,WNW,292,2.0,11.0,70,0.00,,,0.00,meteohub,2013-03-22 12:38:00,
2013-03-22 08:43:00,29.7,21.0,29.78,West,265,4.0,12.0,70,0.00,,,0.00,meteohub,2013-03-22 12:43:00,
2013-03-22 08:49:00,30.0,21.4,29.78,WNW,289,7.0,13.0,70,0.00,,,0.00,meteohub,2013-03-22 12:49:00,
2013-03-22 08:54:00,30.4,21.0,29.79,West,266,2.0,13.0,68,0.00,,,0.00,meteohub,2013-03-22 12:54:00,
2013-03-22 08:59:00,30.6,21.6,29.79,WNW,284,3.0,13.0,69,0.00,,,0.00,meteohub,2013-03-22 12:59:00,
2013-03-22 09:04:00,30.9,21.6,29.78,WNW,302,4.0,12.0,68,0.00,,,0.00,meteohub,2013-03-22 13:04:00,
2013-03-22 09:10:00,31.5,21.4,29.78,NW,309,4.0,12.0,66,0.00,,,0.00,meteohub,2013-03-22 13:10:00,
2013-03-22 09:15:00,31.8,21.4,29.78,WNW,287,5.0,10.0,65,0.00,,,0.00,meteohub,2013-03-22 13:15:00,
2013-03-22 09:20:00,32.5,21.7,29.78,WNW,283,8.0,10.0,64,0.00,,,0.00,meteohub,2013-03-22 13:20:00,
2013-03-22 09:25:00,32.5,21.4,29.78,West,276,3.0,16.0,63,0.00,,,0.00,meteohub,2013-03-22 13:25:00,
2013-03-22 09:30:00,32.7,21.2,29.78,WSW,246,7.0,16.0,62,0.00,,,0.00,meteohub,2013-03-22 13:30:00,
2013-03-22 09:36:00,32.5,20.7,29.78,WNW,286,4.0,14.0,61,0.00,,,0.00,meteohub,2013-03-22 13:36:00,
2013-03-22 09:41:00,32.4,20.8,29.78,West,277,1.0,12.0,62,0.00,,,0.00,meteohub,2013-03-22 13:41:00,
2013-03-22 09:46:00,32.7,21.2,29.79,West,280,5.0,12.0,62,0.00,,,0.00,meteohub,2013-03-22 13:46:00,
2013-03-22 09:52:00,32.9,20.8,29.79,West,260,7.0,10.0,61,0.00,,,0.00,meteohub,2013-03-22 13:52:00,
2013-03-22 09:57:00,32.7,20.8,29.79,SW,234,5.0,12.0,61,0.00,,,0.00,meteohub,2013-03-22 13:57:00,
2013-03-22 10:02:00,33.3,20.8,29.79,West,276,5.0,14.0,60,0.00,,,0.00,meteohub,2013-03-22 14:02:00,
2013-03-22 10:07:00,33.6,19.9,29.79,NW,304,6.0,14.0,57,0.00,,,0.00,meteohub,2013-03-22 14:07:00,
2013-03-22 10:12:00,34.2,20.5,29.79,WNW,295,5.0,14.0,57,0.00,,,0.00,meteohub,2013-03-22 14:12:00,
2013-03-22 10:17:00,34.3,20.3,29.79,WSW,248,3.0,14.0,56,0.00,,,0.00,meteohub,2013-03-22 14:17:00,
2013-03-22 10:22:00,34.3,20.3,29.79,WSW,242,12.0,12.0,56,0.00,,,0.00,meteohub,2013-03-22 14:22:00,
2013-03-22 10:27:00,34.2,19.8,29.79,WSW,238,4.0,13.0,55,0.00,,,0.00,meteohub,2013-03-22 14:27:00,
2013-03-22 10:32:00,34.2,20.1,29.79,WNW,302,9.0,13.0,56,0.00,,,0.00,meteohub,2013-03-22 14:32:00,
2013-03-22 10:37:00,34.0,19.9,29.79,West,262,7.0,14.0,56,0.00,,,0.00,meteohub,2013-03-22 14:37:00,
2013-03-22 10:43:00,34.0,19.9,29.79,WSW,248,8.0,14.0,56,0.00,,,0.00,meteohub,2013-03-22 14:43:00,
2013-03-22 10:48:00,34.0,19.6,29.79,WNW,290,5.0,14.0,55,0.00,,,0.00,meteohub,2013-03-22 14:48:00,
2013-03-22 10:53:00,34.3,19.8,29.79,WNW,298,2.0,16.0,55,0.00,,,0.00,meteohub,2013-03-22 14:53:00,
2013-03-22 10:58:00,34.9,19.4,29.79,West,266,6.0,16.0,53,0.00,,,0.00,meteohub,2013-03-22 14:58:00,
2013-03-22 11:03:00,35.1,19.6,29.79,WNW,287,5.0,16.0,53,0.00,,,0.00,meteohub,2013-03-22 15:03:00,
2013-03-22 11:09:00,35.1,20.1,29.79,NW,316,5.0,15.0,54,0.00,,,0.00,meteohub,2013-03-22 15:09:00,
2013-03-22 11:14:00,35.8,19.4,29.79,WNW,300,6.0,15.0,51,0.00,,,0.00,meteohub,2013-03-22 15:14:00,
2013-03-22 11:19:00,35.4,19.0,29.79,WSW,255,4.0,15.0,51,0.00,,,0.00,meteohub,2013-03-22 15:19:00,
2013-03-22 11:24:00,35.2,19.4,29.79,SW,217,3.0,18.0,52,0.00,,,0.00,meteohub,2013-03-22 15:24:00,
2013-03-22 11:29:00,35.1,18.7,29.79,WNW,283,4.0,18.0,51,0.00,,,0.00,meteohub,2013-03-22 15:29:00,
2013-03-22 11:34:00,36.1,20.3,29.79,WNW,283,7.0,14.0,52,0.00,,,0.00,meteohub,2013-03-22 15:34:00,
2013-03-22 11:39:00,36.5,19.6,29.78,WSW,240,4.0,14.0,50,0.00,,,0.00,meteohub,2013-03-22 15:39:00,
2013-03-22 11:45:00,37.0,20.1,29.78,NW,311,4.0,14.0,50,0.00,,,0.00,meteohub,2013-03-22 15:45:00,
2013-03-22 11:50:00,36.7,19.4,29.78,WNW,297,9.0,12.0,49,0.00,,,0.00,meteohub,2013-03-22 15:50:00,
2013-03-22 11:55:00,36.7,19.8,29.78,WNW,284,6.0,9.0,50,0.00,,,0.00,meteohub,2013-03-22 15:55:00,
2013-03-22 12:00:00,36.3,19.9,29.78,NW,311,2.0,15.0,51,0.00,,,0.00,meteohub,2013-03-22 16:00:00,
2013-03-22 12:05:00,36.5,19.2,29.78,WNW,288,10.0,15.0,49,0.00,,,0.00,meteohub,2013-03-22 16:05:00,
2013-03-22 12:10:00,36.9,19.4,29.78,West,281,4.0,11.0,49,0.00,,,0.00,meteohub,2013-03-22 16:10:00,
2013-03-22 12:15:00,37.6,19.6,29.78,West,271,3.0,11.0,48,0.00,,,0.00,meteohub,2013-03-22 16:15:00,
2013-03-22 12:21:00,37.6,19.2,29.78,WSW,246,4.0,10.0,47,0.00,,,0.00,meteohub,2013-03-22 16:21:00,
2013-03-22 12:26:00,37.8,20.3,29.78,WSW,250,7.0,13.0,49,0.00,,,0.00,meteohub,2013-03-22 16:26:00,
2013-03-22 12:31:00,38.1,21.2,29.78,West,280,5.0,13.0,50,0.00,,,0.00,meteohub,2013-03-22 16:31:00,
2013-03-22 12:36:00,39.0,20.5,29.78,SSW,195,2.0,13.0,47,0.00,,,0.00,meteohub,2013-03-22 16:36:00,
2013-03-22 12:42:00,39.4,19.8,29.78,West,281,5.0,12.0,45,0.00,,,0.00,meteohub,2013-03-22 16:42:00,
2013-03-22 12:47:00,38.7,20.1,29.78,WNW,284,6.0,12.0,47,0.00,,,0.00,meteohub,2013-03-22 16:47:00,
2013-03-22 12:52:00,38.8,21.4,29.78,WNW,295,8.0,12.0,49,0.00,,,0.00,meteohub,2013-03-22 16:52:00,
2013-03-22 12:57:00,39.0,21.0,29.78,SW,226,3.0,13.0,48,0.00,,,0.00,meteohub,2013-03-22 16:57:00,
2013-03-22 13:02:00,39.7,20.7,29.77,NNW,337,5.0,13.0,46,0.00,,,0.00,meteohub,2013-03-22 17:02:00,
2013-03-22 13:07:00,40.5,20.8,29.77,WSW,257,7.0,14.0,45,0.00,,,0.00,meteohub,2013-03-22 17:07:00,
2013-03-22 13:12:00,40.5,20.3,29.77,NW,304,8.0,14.0,44,0.00,,,0.00,meteohub,2013-03-22 17:12:00,
2013-03-22 13:17:00,40.1,20.5,29.77,WNW,283,2.0,11.0,45,0.00,,,0.00,meteohub,2013-03-22 17:17:00,
2013-03-22 13:22:00,39.6,19.4,29.77,SW,219,14.0,14.0,44,0.00,,,0.00,meteohub,2013-03-22 17:22:00,
2013-03-22 13:27:00,39.9,20.3,29.77,WSW,249,15.0,17.0,45,0.00,,,0.00,meteohub,2013-03-22 17:27:00,
2013-03-22 13:32:00,39.7,20.1,29.77,WNW,291,4.0,17.0,45,0.00,,,0.00,meteohub,2013-03-22 17:32:00,
2013-03-22 13:37:00,40.5,20.3,29.77,WNW,290,8.0,17.0,44,0.00,,,0.00,meteohub,2013-03-22 17:37:00,
2013-03-22 13:42:00,39.4,20.3,29.77,WSW,248,3.0,16.0,46,0.00,,,0.00,meteohub,2013-03-22 17:42:00,
2013-03-22 13:47:00,40.1,21.0,29.77,WNW,287,1.0,9.0,46,0.00,,,0.00,meteohub,2013-03-22 17:47:00,
2013-03-22 13:52:00,40.5,20.8,29.77,WNW,297,6.0,9.0,45,0.00,,,0.00,meteohub,2013-03-22 17:52:00,
2013-03-22 13:58:00,41.4,22.6,29.77,WSW,246,8.0,14.0,47,0.00,,,0.00,meteohub,2013-03-22 17:58:00,
2013-03-22 14:03:00,41.5,22.3,29.77,NW,314,4.0,18.0,46,0.00,,,0.00,meteohub,2013-03-22 18:03:00,
2013-03-22 14:08:00,40.5,20.3,29.77,WNW,293,5.0,18.0,44,0.00,,,0.00,meteohub,2013-03-22 18:08:00,
2013-03-22 14:14:00,40.1,21.0,29.77,WSW,253,6.0,13.0,46,0.00,,,0.00,meteohub,2013-03-22 18:14:00,
2013-03-22 14:19:00,39.7,20.1,29.76,WSW,253,5.0,13.0,45,0.00,,,0.00,meteohub,2013-03-22 18:19:00,
2013-03-22 14:24:00,39.9,20.3,29.76,SW,225,6.0,16.0,45,0.00,,,0.00,meteohub,2013-03-22 18:24:00,
2013-03-22 14:29:00,39.6,20.5,29.76,WSW,250,4.0,16.0,46,0.00,,,0.00,meteohub,2013-03-22 18:29:00,
2013-03-22 14:34:00,39.2,19.6,29.77,WNW,287,4.0,16.0,45,0.00,,,0.00,meteohub,2013-03-22 18:34:00,
2013-03-22 14:40:00,39.6,21.0,29.77,WSW,253,7.0,14.0,47,0.00,,,0.00,meteohub,2013-03-22 18:40:00,
2013-03-22 14:45:00,39.6,20.5,29.76,WNW,297,3.0,13.0,46,0.00,,,0.00,meteohub,2013-03-22 18:45:00,
2013-03-22 14:51:00,39.0,18.9,29.76,NW,312,4.0,13.0,44,0.00,,,0.00,meteohub,2013-03-22 18:51:00,
2013-03-22 14:56:00,38.8,19.8,29.76,West,276,5.0,13.0,46,0.00,,,0.00,meteohub,2013-03-22 18:56:00,
2013-03-22 15:01:00,39.4,20.8,29.76,WSW,257,3.0,12.0,47,0.00,,,0.00,meteohub,2013-03-22 19:01:00,
2013-03-22 15:07:00,39.6,19.9,29.76,WNW,295,2.0,10.0,45,0.00,,,0.00,meteohub,2013-03-22 19:07:00,
2013-03-22 15:12:00,39.6,18.9,29.76,West,266,3.0,10.0,43,0.00,,,0.00,meteohub,2013-03-22 19:12:00,
2013-03-22 15:17:00,39.7,19.0,29.76,West,262,5.0,14.0,43,0.00,,,0.00,meteohub,2013-03-22 19:17:00,
2013-03-22 15:22:00,39.9,18.7,29.76,West,280,3.0,14.0,42,0.00,,,0.00,meteohub,2013-03-22 19:22:00,
2013-03-22 15:27:00,40.3,18.5,29.76,WSW,243,3.0,14.0,41,0.00,,,0.00,meteohub,2013-03-22 19:27:00,
2013-03-22 15:32:00,39.9,19.2,29.76,WSW,243,5.0,14.0,43,0.00,,,0.00,meteohub,2013-03-22 19:32:00,
2013-03-22 15:37:00,39.9,19.2,29.76,WNW,295,6.0,14.0,43,0.00,,,0.00,meteohub,2013-03-22 19:37:00,
2013-03-22 15:42:00,40.8,21.2,29.76,NNW,330,3.0,14.0,45,0.00,,,0.00,meteohub,2013-03-22 19:42:00,
2013-03-22 15:47:00,40.5,19.2,29.76,WNW,293,8.0,15.0,42,0.00,,,0.00,meteohub,2013-03-22 19:47:00,
2013-03-22 15:52:00,39.6,19.4,29.76,NW,307,3.0,15.0,44,0.00,,,0.00,meteohub,2013-03-22 19:52:00,
2013-03-22 15:57:00,40.3,22.1,29.76,West,266,3.0,15.0,48,0.00,,,0.00,meteohub,2013-03-22 19:57:00,
2013-03-22 16:02:00,41.2,23.5,29.77,West,280,8.0,12.0,49,0.00,,,0.00,meteohub,2013-03-22 20:02:00,
2013-03-22 16:07:00,41.0,23.4,29.77,WSW,238,9.0,16.0,49,0.00,,,0.00,meteohub,2013-03-22 20:07:00,
2013-03-22 16:13:00,40.8,23.2,29.77,WNW,290,8.0,16.0,49,0.00,,,0.00,meteohub,2013-03-22 20:13:00,
2013-03-22 16:18:00,41.0,22.8,29.77,NW,313,1.0,16.0,48,0.00,,,0.00,meteohub,2013-03-22 20:18:00,
2013-03-22 16:23:00,40.8,22.6,29.77,WSW,238,8.0,11.0,48,0.00,,,0.00,meteohub,2013-03-22 20:23:00,
2013-03-22 16:28:00,40.3,23.2,29.77,WSW,252,4.0,11.0,50,0.00,,,0.00,meteohub,2013-03-22 20:28:00,
2013-03-22 16:33:00,40.1,23.4,29.77,SSW,197,2.0,11.0,51,0.00,,,0.00,meteohub,2013-03-22 20:33:00,
2013-03-22 16:38:00,40.6,24.4,29.77,SW,219,4.0,15.0,52,0.00,,,0.00,meteohub,2013-03-22 20:38:00,
2013-03-22 16:44:00,40.6,23.5,29.77,South,186,3.0,15.0,50,0.00,,,0.00,meteohub,2013-03-22 20:44:00,
2013-03-22 16:49:00,40.5,22.3,29.78,West,273,7.0,11.0,48,0.00,,,0.00,meteohub,2013-03-22 20:49:00,
2013-03-22 16:54:00,39.6,21.6,29.78,West,259,2.0,13.0,48,0.00,,,0.00,meteohub,2013-03-22 20:54:00,
2013-03-22 16:59:00,39.9,22.3,29.78,West,260,7.0,13.0,49,0.00,,,0.00,meteohub,2013-03-22 20:59:00,
2013-03-22 17:04:00,39.7,22.1,29.78,West,280,1.0,13.0,49,0.00,,,0.00,meteohub,2013-03-22 21:04:00,
2013-03-22 17:10:00,39.6,21.9,29.78,West,260,5.0,13.0,49,0.00,,,0.00,meteohub,2013-03-22 21:10:00,
2013-03-22 17:15:00,39.6,21.6,29.78,SW,227,4.0,10.0,48,0.00,,,0.00,meteohub,2013-03-22 21:15:00,
2013-03-22 17:20:00,39.6,22.5,29.78,West,275,5.0,12.0,50,0.00,,,0.00,meteohub,2013-03-22 21:20:00,
2013-03-22 17:25:00,40.6,23.0,29.78,WNW,288,2.0,11.0,49,0.00,,,0.00,meteohub,2013-03-22 21:25:00,
2013-03-22 17:31:00,40.8,22.6,29.78,WSW,240,10.0,16.0,48,0.00,,,0.00,meteohub,2013-03-22 21:31:00,
2013-03-22 17:36:00,40.8,22.1,29.78,NW,310,7.0,16.0,47,0.00,,,0.00,meteohub,2013-03-22 21:36:00,
2013-03-22 17:41:00,40.6,21.9,29.78,NW,304,3.0,16.0,47,0.00,,,0.00,meteohub,2013-03-22 21:41:00,
2013-03-22 17:47:00,40.1,21.9,29.78,West,262,3.0,11.0,48,0.00,,,0.00,meteohub,2013-03-22 21:47:00,
2013-03-22 17:52:00,39.7,22.1,29.78,West,269,3.0,9.0,49,0.00,,,0.00,meteohub,2013-03-22 21:52:00,
2013-03-22 17:57:00,39.4,22.3,29.78,West,266,2.0,12.0,50,0.00,,,0.00,meteohub,2013-03-22 21:57:00,
2013-03-22 18:02:00,39.7,22.6,29.78,NNW,329,1.0,12.0,50,0.00,,,0.00,meteohub,2013-03-22 22:02:00,
2013-03-22 18:07:00,39.7,22.6,29.79,SSW,212,3.0,12.0,50,0.00,,,0.00,meteohub,2013-03-22 22:07:00,
2013-03-22 18:12:00,39.9,22.3,29.79,WNW,287,6.0,12.0,49,0.00,,,0.00,meteohub,2013-03-22 22:12:00,
2013-03-22 18:17:00,39.7,22.1,29.79,West,278,5.0,12.0,49,0.00,,,0.00,meteohub,2013-03-22 22:17:00,
2013-03-22 18:22:00,39.7,22.6,29.79,WSW,257,3.0,12.0,50,0.00,,,0.00,meteohub,2013-03-22 22:22:00,
2013-03-22 18:27:00,39.6,22.5,29.79,West,273,2.0,12.0,50,0.00,,,0.00,meteohub,2013-03-22 22:27:00,
2013-03-22 18:32:00,39.6,23.0,29.80,WSW,256,8.0,11.0,51,0.00,,,0.00,meteohub,2013-03-22 22:32:00,
2013-03-22 18:38:00,39.0,22.5,29.80,WSW,238,5.0,11.0,51,0.00,,,0.00,meteohub,2013-03-22 22:38:00,
2013-03-22 18:43:00,39.0,22.5,29.80,West,269,4.0,11.0,51,0.00,,,0.00,meteohub,2013-03-22 22:43:00,
2013-03-22 18:48:00,38.8,22.3,29.80,SW,219,3.0,11.0,51,0.00,,,0.00,meteohub,2013-03-22 22:48:00,
2013-03-22 18:54:00,38.3,22.3,29.80,WSW,248,8.0,9.0,52,0.00,,,0.00,meteohub,2013-03-22 22:54:00,
2013-03-22 18:59:00,37.9,22.3,29.81,WSW,253,1.0,10.0,53,0.00,,,0.00,meteohub,2013-03-22 22:59:00,
2013-03-22 19:04:00,37.6,22.5,29.81,West,259,2.0,10.0,54,0.00,,,0.00,meteohub,2013-03-22 23:04:00,
2013-03-22 19:09:00,37.0,22.5,29.81,West,269,4.0,10.0,55,0.00,,,0.00,meteohub,2013-03-22 23:09:00,
2013-03-22 19:14:00,36.7,22.5,29.81,WSW,257,3.0,9.0,56,0.00,,,0.00,meteohub,2013-03-22 23:14:00,
2013-03-22 19:19:00,36.5,22.6,29.81,WSW,255,4.0,7.0,57,0.00,,,0.00,meteohub,2013-03-22 23:19:00,
2013-03-22 19:25:00,36.3,22.5,29.82,West,281,5.0,7.0,57,0.00,,,0.00,meteohub,2013-03-22 23:25:00,
2013-03-22 19:30:00,36.0,22.6,29.82,West,278,3.0,14.0,58,0.00,,,0.00,meteohub,2013-03-22 23:30:00,
2013-03-22 19:35:00,35.8,22.8,29.82,West,259,3.0,9.0,59,0.00,,,0.00,meteohub,2013-03-22 23:35:00,
2013-03-22 19:40:00,35.4,23.0,29.82,West,259,1.0,9.0,60,0.00,,,0.00,meteohub,2013-03-22 23:40:00,
2013-03-22 19:45:00,35.2,22.8,29.82,WSW,255,3.0,8.0,60,0.00,,,0.00,meteohub,2013-03-22 23:45:00,
2013-03-22 19:50:00,35.1,23.0,29.82,WSW,238,3.0,5.0,61,0.00,,,0.00,meteohub,2013-03-22 23:50:00,
2013-03-22 19:56:00,34.9,23.2,29.83,NW,308,3.0,6.0,62,0.00,,,0.00,meteohub,2013-03-22 23:56:00,
2013-03-22 20:01:00,34.9,23.2,29.83,West,263,2.0,6.0,62,0.00,,,0.00,meteohub,2013-03-23 00:01:00,
2013-03-22 20:06:00,34.5,22.8,29.83,WSW,252,3.0,10.0,62,0.00,,,0.00,meteohub,2013-03-23 00:06:00,
2013-03-22 20:11:00,34.5,23.2,29.83,NNW,345,3.0,11.0,63,0.00,,,0.00,meteohub,2013-03-23 00:11:00,
2013-03-22 20:17:00,34.3,23.0,29.83,SW,228,7.0,11.0,63,0.00,,,0.00,meteohub,2013-03-23 00:17:00,
2013-03-22 20:22:00,34.3,23.0,29.83,WSW,242,6.0,11.0,63,0.00,,,0.00,meteohub,2013-03-23 00:22:00,
2013-03-22 20:28:00,34.3,23.0,29.83,WSW,238,1.0,11.0,63,0.00,,,0.00,meteohub,2013-03-23 00:28:00,
2013-03-22 20:32:00,34.2,22.8,29.83,West,275,4.0,11.0,63,0.00,,,0.00,meteohub,2013-03-23 00:32:00,
2013-03-22 20:38:00,34.2,22.8,29.83,NW,311,8.0,11.0,63,0.00,,,0.00,meteohub,2013-03-23 00:38:00,
2013-03-22 20:43:00,34.0,23.0,29.83,West,277,1.0,11.0,64,0.00,,,0.00,meteohub,2013-03-23 00:43:00,
2013-03-22 20:48:00,34.0,23.0,29.83,West,278,2.0,11.0,64,0.00,,,0.00,meteohub,2013-03-23 00:48:00,
2013-03-22 20:53:00,33.6,22.8,29.84,WSW,250,3.0,10.0,64,0.00,,,0.00,meteohub,2013-03-23 00:53:00,
2013-03-22 20:58:00,33.6,22.8,29.84,WSW,252,0.0,10.0,64,0.00,,,0.00,meteohub,2013-03-23 00:58:00,
2013-03-22 21:04:00,33.6,22.8,29.84,WNW,295,2.0,9.0,64,0.00,,,0.00,meteohub,2013-03-23 01:04:00,
2013-03-22 21:09:00,33.4,22.6,29.84,West,262,9.0,9.0,64,0.00,,,0.00,meteohub,2013-03-23 01:09:00,
2013-03-22 21:14:00,33.4,22.6,29.84,West,273,0.0,9.0,64,0.00,,,0.00,meteohub,2013-03-23 01:14:00,
2013-03-22 21:19:00,33.3,22.5,29.84,WSW,245,2.0,12.0,64,0.00,,,0.00,meteohub,2013-03-23 01:19:00,
2013-03-22 21:24:00,33.3,22.5,29.85,WSW,255,2.0,12.0,64,0.00,,,0.00,meteohub,2013-03-23 01:24:00,
2013-03-22 21:30:00,33.1,22.6,29.85,West,259,2.0,5.0,65,0.00,,,0.00,meteohub,2013-03-23 01:30:00,
2013-03-22 21:35:00,32.7,22.6,29.85,WNW,288,1.0,7.0,66,0.00,,,0.00,meteohub,2013-03-23 01:35:00,
2013-03-22 21:40:00,32.7,22.3,29.86,West,260,0.0,6.0,65,0.00,,,0.00,meteohub,2013-03-23 01:40:00,
2013-03-22 21:46:00,32.4,22.3,29.86,SW,215,0.0,6.0,66,0.00,,,0.00,meteohub,2013-03-23 01:46:00,
2013-03-22 21:51:00,32.2,22.1,29.86,West,269,2.0,8.0,66,0.00,,,0.00,meteohub,2013-03-23 01:51:00,
2013-03-22 21:56:00,32.2,22.1,29.86,West,259,4.0,8.0,66,0.00,,,0.00,meteohub,2013-03-23 01:56:00,
2013-03-22 22:02:00,32.2,22.1,29.86,West,278,0.0,8.0,66,0.00,,,0.00,meteohub,2013-03-23 02:02:00,
2013-03-22 22:07:00,32.0,21.9,29.86,SSW,211,0.0,8.0,66,0.00,,,0.00,meteohub,2013-03-23 02:07:00,
2013-03-22 22:12:00,32.0,22.3,29.86,West,275,0.0,5.0,67,0.00,,,0.00,meteohub,2013-03-23 02:12:00,
2013-03-22 22:17:00,31.8,21.7,29.86,West,277,1.0,7.0,66,0.00,,,0.00,meteohub,2013-03-23 02:17:00,
2013-03-22 22:22:00,31.8,22.1,29.86,WNW,302,2.0,10.0,67,0.00,,,0.00,meteohub,2013-03-23 02:22:00,
2013-03-22 22:27:00,31.8,21.7,29.86,West,271,5.0,10.0,66,0.00,,,0.00,meteohub,2013-03-23 02:27:00,
2013-03-22 22:32:00,32.0,21.9,29.86,West,278,1.0,10.0,66,0.00,,,0.00,meteohub,2013-03-23 02:32:00,
2013-03-22 22:37:00,31.8,21.7,29.86,West,262,2.0,7.0,66,0.00,,,0.00,meteohub,2013-03-23 02:37:00,
2013-03-22 22:42:00,31.8,21.7,29.86,WSW,250,1.0,7.0,66,0.00,,,0.00,meteohub,2013-03-23 02:42:00,
2013-03-22 22:47:00,31.6,21.6,29.86,NW,321,5.0,6.0,66,0.00,,,0.00,meteohub,2013-03-23 02:47:00,
2013-03-22 22:53:00,31.5,21.4,29.86,WSW,246,0.0,6.0,66,0.00,,,0.00,meteohub,2013-03-23 02:53:00,
2013-03-22 22:58:00,31.5,21.4,29.86,NW,314,1.0,5.0,66,0.00,,,0.00,meteohub,2013-03-23 02:58:00,
2013-03-22 23:03:00,31.5,21.4,29.86,NW,317,2.0,5.0,66,0.00,,,0.00,meteohub,2013-03-23 03:03:00,
2013-03-22 23:09:00,31.6,21.2,29.86,NW,307,1.0,5.0,65,0.00,,,0.00,meteohub,2013-03-23 03:09:00,
2013-03-22 23:14:00,31.6,21.2,29.87,West,280,0.0,5.0,65,0.00,,,0.00,meteohub,2013-03-23 03:14:00,
2013-03-22 23:19:00,31.5,21.0,29.86,WNW,290,0.0,4.0,65,0.00,,,0.00,meteohub,2013-03-23 03:19:00,
2013-03-22 23:25:00,31.3,20.8,29.86,North,11,0.0,4.0,65,0.00,,,0.00,meteohub,2013-03-23 03:25:00,
2013-03-22 23:30:00,31.1,20.7,29.86,West,273,0.0,4.0,65,0.00,,,0.00,meteohub,2013-03-23 03:30:00,
2013-03-22 23:35:00,30.9,20.8,29.86,West,276,0.0,4.0,66,0.00,,,0.00,meteohub,2013-03-23 03:35:00,
2013-03-22 23:40:00,30.7,20.7,29.86,WNW,282,0.0,4.0,66,0.00,,,0.00,meteohub,2013-03-23 03:40:00,
2013-03-22 23:45:00,30.6,20.8,29.87,West,274,0.0,3.0,67,0.00,,,0.00,meteohub,2013-03-23 03:45:00,
2013-03-22 23:50:00,30.0,20.5,29.86,SW,233,0.0,3.0,67,0.00,,,0.00,meteohub,2013-03-23 03:50:00,
2013-03-22 23:55:00,29.5,20.3,29.86,SW,233,0.0,2.0,68,0.00,,,0.00,meteohub,2013-03-23 03:55:00,